Weather History for Dyersburg, TN

Change the Weather History Date:

Monday, July 7, 2014

  Actual Average Record
Temperature  
Mean Temperature 79 °F -  
Max Temperature 89 °F 86 °F 98 °F (2012)
Min Temperature 69 °F 69 °F 60 °F (2006)
Cooling Degree Days 14    
Growing Degree Days 29 (Base 50)    
Moisture  
Dew Point 63 °F    
Average Humidity 56    
Maximum Humidity 69    
Minimum Humidity 43    
Precipitation  
Precipitation 0.00 in - - ()
Sea Level Pressure  
Sea Level Pressure 29.95 in    
Wind  
Wind Speed 5 mph (SSW)    
Max Wind Speed 16 mph    
Max Gust Speed 22 mph    
Visibility 10 miles    
Events      
Averages and records for this station are not official NWS values.
T = Trace of Precipitation, MM = Missing Value Source: NWS Daily Summary

Daily Weather History Graph

Daily Weather History Graph

Search for Another Location

Airport:

Trip Planner

Search our weather history database for the weather conditions in past years. The results will help you decide how hot, cold, wet, or windy it might be!

Date:

Astronomy

Jul. 07, 2014 Rise Set
Actual Time 5:47 AM CDT 8:17 PM CDT
Civil Twilight 5:17 AM CDT 8:47 PM CDT
Nautical Twilight 4:40 AM CDT 9:24 PM CDT
Astronomical Twilight 3:59 AM CDT 10:04 PM CDT
Moon 3:25 PM CDT (7/7) 1:35 AM CDT (7/7)
Length of Visible Light 15h 29m
Length of Day
14h 29m
Waxing Gibbous, 72% of the Moon is Illuminated
Jul 7
Waxing Gibbous
Jul 12
Full
Jul 18
Last Quarter
Jul 26
New
Aug 3
First Quarter

Hourly Weather History & Observations

Time (CDT) Temp. Heat Index Dew Point Humidity Pressure Visibility Wind Dir Wind Speed Gust Speed Precip Events Conditions
12:15 AM 71.6 °F - 57.2 °F 60% 30.00 in 10.0 mi South 4.6 mph - N/A   Clear
12:35 AM 71.6 °F - 57.2 °F 60% 30.00 in 10.0 mi Calm Calm - N/A   Clear
12:55 AM 71.6 °F - 57.2 °F 60% 30.01 in 10.0 mi South 4.6 mph - N/A   Clear
1:15 AM 71.6 °F - 57.2 °F 60% 30.00 in 10.0 mi South 5.8 mph - N/A   Clear
1:35 AM 71.6 °F - 57.2 °F 60% 30.00 in 10.0 mi South 3.5 mph - N/A   Clear
1:55 AM 71.6 °F - 57.2 °F 60% 29.99 in 10.0 mi South 4.6 mph - N/A   Clear
2:15 AM 71.6 °F - 57.2 °F 60% 29.99 in 10.0 mi Calm Calm - N/A   Clear
2:35 AM 71.6 °F - 57.2 °F 60% 29.98 in 10.0 mi Calm Calm - N/A   Clear
2:55 AM 71.6 °F - 57.2 °F 60% 29.97 in 10.0 mi Calm Calm - N/A   Clear
3:15 AM 71.6 °F - 57.2 °F 60% 29.97 in 10.0 mi Calm Calm - N/A   Clear
3:35 AM 69.8 °F - 57.2 °F 64% 29.97 in 10.0 mi South 3.5 mph - N/A   Clear
3:55 AM 69.8 °F - 57.2 °F 64% 29.97 in 10.0 mi Calm Calm - N/A   Clear
4:15 AM 69.8 °F - 57.2 °F 64% 29.96 in 10.0 mi Calm Calm - N/A   Clear
4:35 AM 69.8 °F - 57.2 °F 64% 29.96 in 10.0 mi Calm Calm - N/A   Clear
4:55 AM 71.6 °F - 57.2 °F 60% 29.95 in 10.0 mi Calm Calm - N/A   Clear
5:15 AM 71.6 °F - 57.2 °F 60% 29.95 in 10.0 mi SSW 4.6 mph - N/A   Clear
5:35 AM 71.6 °F - 59.0 °F 64% 29.95 in 10.0 mi SSW 3.5 mph - N/A   Clear
5:55 AM 71.6 °F - 59.0 °F 64% 29.96 in 10.0 mi SW 3.5 mph - N/A   Clear
6:15 AM 71.6 °F - 59.0 °F 64% 29.97 in 10.0 mi Calm Calm - N/A   Clear
6:35 AM 71.6 °F - 60.8 °F 69% 29.97 in 10.0 mi Calm Calm - N/A   Clear
6:55 AM 73.4 °F - 60.8 °F 65% 29.97 in 10.0 mi Calm Calm - N/A   Clear
7:15 AM 73.4 °F - 60.8 °F 65% 29.98 in 10.0 mi Calm Calm - N/A   Scattered Clouds
7:35 AM 75.2 °F - 62.6 °F 65% 29.98 in 10.0 mi Calm Calm - N/A   Partly Cloudy
7:55 AM 77.0 °F - 62.6 °F 61% 29.99 in 10.0 mi SSW 5.8 mph - N/A   Partly Cloudy
8:15 AM 78.8 °F - 64.4 °F 61% 29.99 in 10.0 mi SW 8.1 mph - N/A   Partly Cloudy
8:35 AM 80.6 °F 82.3 °F 64.4 °F 58% 29.99 in 10.0 mi SW 5.8 mph - N/A   Partly Cloudy
8:55 AM 80.6 °F 82.3 °F 64.4 °F 58% 29.99 in 10.0 mi SW 8.1 mph - N/A   Clear
9:15 AM 82.4 °F 83.9 °F 64.4 °F 54% 29.98 in 10.0 mi SSW 6.9 mph - N/A   Clear
9:35 AM 84.2 °F 86.6 °F 66.2 °F 55% 29.98 in 10.0 mi SW 11.5 mph - N/A   Clear
9:55 AM 82.4 °F 84.6 °F 66.2 °F 58% 29.98 in 10.0 mi SW 6.9 mph - N/A   Clear
10:15 AM 82.4 °F 84.6 °F 66.2 °F 58% 29.98 in 10.0 mi SW 9.2 mph - N/A   Clear
10:35 AM 84.2 °F 86.6 °F 66.2 °F 55% 29.98 in 10.0 mi SW 6.9 mph - N/A   Clear
10:55 AM 84.2 °F 86.6 °F 66.2 °F 55% 29.98 in 10.0 mi SW 10.4 mph - N/A   Clear
11:15 AM 84.2 °F 86.6 °F 66.2 °F 55% 29.98 in 10.0 mi SW 9.2 mph - N/A   Clear
11:35 AM 86.0 °F 88.2 °F 66.2 °F 51% 29.97 in 10.0 mi SW 11.5 mph 20.7 mph N/A   Clear
11:55 AM 87.8 °F 90.4 °F 66.2 °F 49% 29.97 in 10.0 mi WSW 11.5 mph - N/A   Clear
12:15 PM 87.8 °F 90.4 °F 66.2 °F 49% 29.97 in 10.0 mi WSW 16.1 mph - N/A   Clear
12:35 PM 86.0 °F 88.2 °F 66.2 °F 51% 29.96 in 10.0 mi SW 11.5 mph 19.6 mph N/A   Partly Cloudy
12:55 PM 87.8 °F 91.4 °F 68.0 °F 52% 29.96 in 10.0 mi SW 12.7 mph 16.1 mph N/A   Clear
1:15 PM 87.8 °F 90.4 °F 66.2 °F 49% 29.96 in 10.0 mi WSW 13.8 mph 20.7 mph N/A   Clear
1:35 PM 87.8 °F 91.4 °F 68.0 °F 52% 29.95 in 10.0 mi SW 12.7 mph 17.3 mph N/A   Clear
1:55 PM 86.0 °F 88.2 °F 66.2 °F 51% 29.95 in 10.0 mi SW 9.2 mph 17.3 mph N/A   Partly Cloudy
2:15 PM 86.0 °F 89.4 °F 68.0 °F 55% 29.95 in 10.0 mi SW 11.5 mph 16.1 mph N/A   Partly Cloudy
2:35 PM 87.8 °F 92.6 °F 69.8 °F 55% 29.94 in 10.0 mi SW 5.8 mph - N/A   Clear
2:55 PM 89.6 °F 94.7 °F 69.8 °F 52% 29.93 in 10.0 mi SW 9.2 mph - N/A   Clear
3:35 PM 89.6 °F 93.4 °F 68.0 °F 49% 29.91 in 10.0 mi SSW 11.5 mph 19.6 mph N/A   Partly Cloudy
3:55 PM 89.6 °F 93.4 °F 68.0 °F 49% 29.91 in 10.0 mi SW 12.7 mph 19.6 mph N/A   Partly Cloudy
4:15 PM 89.6 °F 92.2 °F 66.2 °F 46% 29.91 in 10.0 mi SSW 9.2 mph 21.9 mph N/A   Partly Cloudy
4:35 PM 89.6 °F 92.2 °F 66.2 °F 46% 29.90 in 10.0 mi SSW 10.4 mph 18.4 mph N/A   Partly Cloudy
4:55 PM 89.6 °F 92.2 °F 66.2 °F 46% 29.91 in 10.0 mi SW 11.5 mph 21.9 mph N/A   Clear
5:15 PM 89.6 °F 91.1 °F 64.4 °F 43% 29.92 in 10.0 mi SW 13.8 mph - N/A   Clear
5:35 PM 89.6 °F 91.1 °F 64.4 °F 43% 29.92 in 10.0 mi SW 13.8 mph 20.7 mph N/A   Clear
5:55 PM 89.6 °F 91.1 °F 64.4 °F 43% 29.91 in 10.0 mi SW 6.9 mph 17.3 mph N/A   Clear
6:15 PM 87.8 °F 88.5 °F 62.6 °F 43% 29.91 in 10.0 mi SW 10.4 mph 20.7 mph N/A   Clear
6:35 PM 87.8 °F 89.4 °F 64.4 °F 46% 29.91 in 10.0 mi SW 11.5 mph 18.4 mph N/A   Clear
6:55 PM 86.0 °F 87.3 °F 64.4 °F 48% 29.92 in 10.0 mi SW 6.9 mph - N/A   Clear
7:15 PM 86.0 °F 87.3 °F 64.4 °F 48% 29.92 in 10.0 mi Calm Calm - N/A   Clear
7:35 PM 84.2 °F 85.6 °F 64.4 °F 51% 29.93 in 10.0 mi SW 3.5 mph - N/A   Clear
7:55 PM 84.2 °F 85.6 °F 64.4 °F 51% 29.92 in 10.0 mi SSW 3.5 mph - N/A   Clear
8:15 PM 82.4 °F 83.9 °F 64.4 °F 54% 29.92 in 10.0 mi Calm Calm - N/A   Clear
8:35 PM 82.4 °F 83.9 °F 64.4 °F 54% 29.91 in 10.0 mi Calm Calm - N/A   Clear
8:55 PM 80.6 °F 82.3 °F 64.4 °F 58% 29.91 in 10.0 mi Calm Calm - N/A   Clear
9:15 PM 80.6 °F 82.3 °F 64.4 °F 58% 29.92 in 10.0 mi SSW 3.5 mph - N/A   Clear
9:35 PM 80.6 °F 81.8 °F 62.6 °F 54% 29.93 in 10.0 mi Calm Calm - N/A   Clear
9:55 PM 80.6 °F 82.3 °F 64.4 °F 58% 29.94 in 10.0 mi Calm Calm - N/A   Clear
10:15 PM 80.6 °F 82.3 °F 64.4 °F 58% 29.95 in 10.0 mi Calm Calm - N/A   Clear
10:35 PM 78.8 °F - 64.4 °F 61% 29.95 in 10.0 mi Calm Calm - N/A   Partly Cloudy
10:55 PM 78.8 °F - 64.4 °F 61% 29.93 in 10.0 mi South 4.6 mph - N/A   Partly Cloudy
11:15 PM 78.8 °F - 62.6 °F 57% 29.93 in 10.0 mi South 4.6 mph - N/A   Clear
11:35 PM 78.8 °F - 62.6 °F 57% 29.93 in 10.0 mi SSE 3.5 mph - N/A   Clear
11:55 PM 77.0 °F - 62.6 °F 61% 29.91 in 10.0 mi South 3.5 mph - N/A   Clear